Location: Brookview Estates
(36.0476°N, 86.6931°W)
Time: 09:14:59
(UTC+00:00)

CZ-2D R/B - Pass Details

Date: 30 March 2020
Orbit: 523 x 537 km, 97.4° (Epoch: 01 June)

Event Time Altitude Azimuth Distance (km) Brightness Sun altitude
Rises 00:50:30 0° 181° (S) 2,651 6.7 -9.6°
Reaches altitude 10° 00:52:40 10° 187° (S) 1,764 5.9 -10.0°
Maximum altitude 00:56:19 44° 261° (W) 731 4.5 -10.7°
Drops below altitude 10° 00:59:59 10° 335° (NNW) 1,770 6.5 -11.4°
Sets 01:02:10 0° 342° (NNW) 2,661 7.3 -11.9°
